Regional Weather Roundup
Issued by NWS

Home | Current Version | Previous Version | Graphics & Text | Print | Product List | Glossary On
Versions: 1 2 3 4 5 6 7 8 9 10 11 12 13 14 15 16 17 18 19 20 21 22 23 24 25 26 27 28 29 30 31 32 33 34 35 36 37 38 39 40 41 42 43 44 45 46 47 48 49 50
647
ASUS43 KLOT 240307
RWRIL

ILLINOIS REGIONAL WEATHER ROUNDUP
NATIONAL WEATHER SERVICE CHICAGO/ROMEOVILLE IL
1000 PM CDT THU MAR 23 2017

NOTE: "FAIR" INDICATES FEW OR NO CLOUDS BELOW 12,000 FEET WITH NO
SIGNIFICANT WEATHER AND/OR OBSTRUCTIONS TO VISIBILITY.

* THESE STATIONS ARE NOT UNDER NWS QUALITY CONTROL. THEY ALSO MAY NOT
  REPORT WEATHER SUCH AS PRECIPITATION OR FOG.

ILZ001-002-007-009-015-016-024-240400-
NORTHWEST ILLINOIS

CITY           SKY/WX    TMP DP  RH WIND       PRES   REMARKS
MOLINE         PTCLDY    43  37  79 SE8       29.93R
STERLING*      CLOUDY    42  34  73 SE5       29.98R
SAVANNA*       CLOUDY    42  33  68 SE10      29.96S
$$

ILZ003-004-008-010-011-017-018-240400-
NORTH CENTRAL ILLINOIS

CITY           SKY/WX    TMP DP  RH WIND       PRES   REMARKS
ROCKFORD       CLOUDY    43  32  65 SE13      30.01F
FREEPORT*      CLOUDY    41  32  71 SE10      29.99F
ROCHELLE*      PTCLDY    43  32  64 SE13G20   30.00R
DE KALB*       PTCLDY    45  31  59 SE18      30.01S
PERU*          CLEAR     42  32  67 S18G28    29.98F
$$

ILZ005-006-012>014-019>023-240400-
NORTHEAST ILLINOIS

CITY           SKY/WX    TMP DP  RH WIND       PRES   REMARKS
CHICAGO-OHARE  CLOUDY    48  33  56 S9        30.03R
CHICAGO-MIDWAY CLOUDY    50  30  46 S10       30.03F
AURORA         MOCLDY    47  31  53 SE10      30.02S
LANSING*       CLOUDY    48  34  57 S17G24    30.03F
JOLIET*        MOCLDY    49  32  53 S9        30.01F
WAUKEGAN       CLOUDY    44  36  73 E6        30.04S
DUPAGE AIRPORT MOCLDY    46  32  58 S8        30.01F
KANKAKEE*      CLOUDY    48  32  53 SE17G24   30.02F
WHEELING       CLOUDY    47  33  58 S9        30.05S
MORRIS*        CLOUDY    46  33  59 S14G20    30.00S
ROMEOVILLE*    CLOUDY    46  35  66 S13       30.02S
NORTHERLY ISL    N/A     48  30  50 S8          N/A
$$

LMZ740>746-240400-
SOUTHERN LAKE MICHIGAN

STATION/POSITION SKY/WX   TEMP    WIND        PRES    VSBY  WAVE
                          AIR SEA DIR/SP/G                  HT/PER
                          (F)     (DEG/KT/KT) (MB)    (MI)  (FT/S)
HARRISON CRIB              45     160/ 14/ 15   N/A
BURNHAM HARBOR             49     180/  6/ 14   N/A
CALUMET HARBOR             50     170/ 13/ 18 1016.3F
BURNS HARBOR               49     160/ 18/ 25 1016.9F
MICHIGAN CITY              46     140/ 18/ 22   N/A
$$

ILZ025>027-034>036-040-047-049-050-058-095>099-240400-
WEST-CENTRAL ILLINOIS

CITY           SKY/WX    TMP DP  RH WIND       PRES   REMARKS
QUINCY         CLEAR     54  42  64 S13       29.90F
GALESBURG*     MOCLDY    44  39  84 SE13G20   29.91S
MACOMB*        CLEAR     44  41  90 SE12      29.95S
JACKSONVILLE*  CLEAR     53  42  65 S15G23    29.95S
PITTSFIELD*    CLEAR     53  43  70 SE10      29.94S
$$

ILZ028>032-037-038-041>044-048-051>054-059>061-240400-
CENTRAL ILLINOIS

CITY           SKY/WX    TMP DP  RH WIND       PRES   REMARKS
PONTIAC        PTCLDY    46  34  62 S21G26    30.01F
BLOOMINGTON    CLEAR     44  35  70 S22G32    30.01F
DECATUR        CLEAR     47  37  68 S17       30.04S
PEORIA         PTCLDY    46  38  73 S16       29.97F
LACON*         CLEAR     44  35  70 S15G21    29.96F
LINCOLN*       CLEAR     45  40  84 S14       30.01S
SPRINGFIELD    CLEAR     49  41  74 SE22G28   29.99S
TAYLORVILLE    CLEAR     46  39  76 SE15      30.02S
$$

ILZ033-039-045-046-055>057-062-063-240400-
EAST-CENTRAL ILLINOIS

CITY           SKY/WX    TMP DP  RH WIND       PRES   REMARKS
CHAMPAIGN      CLEAR     48  33  56 S17       30.06F
RANTOUL*       CLEAR     47  36  63 S13       30.06F
MATTOON        CLEAR     48  37  65 S18G24    30.07F
PARIS*         CLEAR     49  36  60 SE17      30.10F
$$

ILZ079-100>102-240400-
SOUTHWEST ILLINOIS

CITY           SKY/WX    TMP DP  RH WIND       PRES   REMARKS
ALTON          CLEAR     50  43  76 SE12      30.02F
BELLEVILLE     CLEAR     52  44  75 SE9       30.03F
CAHOKIA*       CLEAR     59  41  51 S8        30.02F
SPARTA*        CLEAR     53  43  70 SE10      30.06F
$$

ILZ064>066-069>071-074>076-080>082-084>086-088>090-092>094-240400-
SOUTH-CENTRAL ILLINOIS

CITY           SKY/WX    TMP DP  RH WIND       PRES   REMARKS
CARBONDALE     CLEAR     51  43  74 SE8       30.08F
CAIRO*         CLEAR     52  45  76 E3        30.10F
EFFINGHAM*     CLEAR     47  41  80 SE13      30.10F
MARION         CLEAR     50  45  81 SE7       30.10F
MT. VERNON     CLEAR     49  42  77 SE5       30.09F
CENTRALIA*     CLEAR     50  43  77 SE14      30.06F
SALEM*         CLEAR     50  41  72 SE9       30.08F
METROPOLIS*    CLEAR     53  43  70 SE3       30.12F
$$

ILZ067-068-072-073-078-083-087-091-240400-
SOUTHEAST ILLINOIS

CITY           SKY/WX    TMP DP  RH WIND       PRES   REMARKS
LAWRENCEVILLE  CLEAR     47  38  71 SE7       30.14F
FLORA*         CLEAR     46  41  82 SE7       30.10F
FAIRFIELD*     CLEAR     50  42  73 SE5       30.10F
HARRISBURG*    CLEAR     49  44  84 SE10      30.11F
ROBINSON*      CLEAR     48  36  62 S10       30.14S
CARMI*         CLEAR     47  42  84 SE10      30.11F
$$

ABBREVIATIONS USED IN REMARKS
   TC - TEMPERATURE IN CELSIUS
  WCI - WIND CHILL INDEX
   HX - HEAT INDEX
  VSB - VISIBILITY
$$





USA.gov is the U.S. government's official web portal to all federal, state and local government web resources and services.